DW7379 Weather Reports


time (UTC)temp
C
wind
direction
speed
KPH
gust
KPH
rain 1hr
cm
rain 24hr
cm
rain mn
cm
humidity
%
barometer
mb
20260507122403 16 142 9.7 19.3 0.00 0.00 0.00 65 1016.1
20260507120903 16 134 14.5 20.9 0.00 0.00 0.00 65 1016.2
20260507120403 16 150 14.5 22.5 0.00 0.00 0.00 66 1016.2
20260507115904 15 131 11.3 19.3 0.00 0.00 0.00 66 1016.2
20260507115404 15 135 9.7 19.3 0.00 0.00 0.00 66 1016.2
20260507114904 16 146 9.7 20.9 0.00 0.00 0.00 66 1016.1
20260507114404 16 132 11.3 19.3 0.00 0.00 0.00 64 1016.1
20260507113904 16 149 9.7 22.5 0.00 0.00 0.00 64 1016.1
20260507113404 16 139 12.9 20.9 0.00 0.00 0.00 64 1016.1
20260507112404 16 121 9.7 19.3 0.00 0.00 0.00 65 1016.2
20260507111904 16 145 9.7 20.9 0.00 0.00 0.00 65 1016.2
20260507111404 16 130 8.0 19.3 0.00 0.00 0.00 67 1016.2
20260507110905 16 137 11.3 19.3 0.00 0.00 0.00 65 1016.2
20260507105904 16 144 9.7 19.3 0.00 0.00 0.00 65 1016.3
20260507105404 16 137 9.7 19.3 0.00 0.00 0.00 65 1016.3
20260507104903 16 141 9.7 16.1 0.00 0.00 0.00 67 1016.3
20260507104404 16 147 9.7 19.3 0.00 0.00 0.00 67 1016.3
20260507103903 16 131 9.7 19.3 0.00 0.00 0.00 66 1016.4
20260507102903 16 138 9.7 19.3 0.00 0.00 0.00 66 1016.3
20260507102404 16 128 9.7 19.3 0.00 0.00 0.00 66 1016.3
20260507101904 16 118 11.3 19.3 0.00 0.00 0.00 66 1016.4
20260507100903 16 117 11.3 19.3 0.00 0.00 0.00 67 1016.4
20260507100404 15 121 9.7 19.3 0.00 0.00 0.00 68 1016.3
20260507095904 15 124 11.3 19.3 0.00 0.00 0.00 67 1016.3
20260507094904 15 117 11.3 19.3 0.00 0.00 0.00 68 1016.3
20260507094405 15 110 9.7 16.1 0.00 0.00 0.00 69 1016.4
20260507093403 15 127 11.3 19.3 0.00 0.00 0.00 71 1016.4
20260507092904 14 147 8.0 16.1 0.00 0.00 0.00 71 1016.4
20260507092404 14 139 11.3 19.3 0.00 0.00 0.00 72 1016.5
20260507091904 14 142 9.7 14.5 0.00 0.00 0.00 72 1016.5
20260507090903 14 129 8.0 14.5 0.00 0.00 0.00 71 1016.4
20260507090405 14 132 9.7 16.1 0.00 0.00 0.00 70 1016.4
20260507085904 15 148 9.7 19.3 0.00 0.00 0.00 69 1016.4
20260507085403 15 131 6.4 16.1 0.00 0.00 0.00 70 1016.4
20260507084405 14 119 8.0 19.3 0.00 0.00 0.00 70 1016.3
20260507083905 14 125 11.3 19.3 0.00 0.00 0.00 70 1016.3
20260507083404 14 113 9.7 19.3 0.00 0.00 0.00 71 1016.3
20260507082904 13 106 11.3 19.3 0.00 0.00 0.00 73 1016.1
20260507082404 13 100 11.3 20.9 0.00 0.00 0.00 74 1016.1
20260507081904 13 98 9.7 19.3 0.00 0.00 0.00 74 1016.0
20260507080404 13 88 11.3 19.3 0.00 0.00 0.00 75 1016.0
20260507075903 13 112 11.3 19.3 0.00 0.00 0.00 75 1016.0
20260507075404 13 109 11.3 19.3 0.00 0.00 0.00 75 1016.0
20260507074903 13 111 8.0 19.3 0.00 0.00 0.00 75 1015.9
20260507074404 13 112 6.4 14.5 0.00 0.00 0.00 75 1016.0
20260507073904 12 99 8.0 16.1 0.00 0.00 0.00 75 1016.0
20260507073404 12 105 9.7 16.1 0.00 0.00 0.00 75 1016.0
20260507072905 12 109 9.7 19.3 0.00 0.00 0.00 75 1016.0
20260507072405 12 98 9.7 16.1 0.00 0.00 0.00 75 1016.0
20260507071903 12 112 9.7 16.1 0.00 0.00 0.00 75 1016.0
20260507071404 12 95 9.7 19.3 0.00 0.00 0.00 75 1016.0
20260507070904 12 110 9.7 16.1 0.00 0.00 0.00 75 1016.0
20260507070403 12 83 8.0 14.5 0.00 0.00 0.00 75 1015.9
20260507065904 11 100 6.4 14.5 0.00 0.00 0.00 75 1015.9
20260507065404 11 104 8.0 16.1 0.00 0.00 0.00 76 1015.9
20260507064905 11 97 9.7 14.5 0.00 0.00 0.00 76 1015.8
20260507064404 11 88 9.7 14.5 0.00 0.00 0.00 76 1015.8
20260507063903 11 92 3.2 12.9 0.00 0.00 0.00 77 1015.8
20260507063404 11 97 6.4 12.9 0.00 0.00 0.00 78 1015.9
20260507062403 10 95 3.2 8.0 0.00 0.00 0.00 80 1015.8
20260507061903 10 63 4.8 8.0 0.00 0.00 0.00 80 1015.8
20260507061405 10 62 3.2 11.3 0.00 0.00 0.00 81 1015.8
20260507060905 10 74 3.2 4.8 0.00 0.00 0.00 82 1015.7
20260507060403 9 98 3.2 4.8 0.00 0.00 0.00 82 1015.7
20260507055904 9 99 4.8 12.9 0.00 0.00 0.00 81 1015.6
20260507055404 9 88 4.8 8.0 0.00 0.00 0.00 82 1015.6
20260507054904 8 80 3.2 9.7 0.00 0.00 0.00 82 1015.6
20260507054406 8 72 3.2 4.8 0.00 0.00 0.00 82 1015.6
20260507053903 8 76 1.6 4.8 0.00 0.00 0.00 82 1015.5
20260507053404 8 59 1.6 4.8 0.00 0.00 0.00 82 1015.5
20260507052904 8 71 1.6 8.0 0.00 0.00 0.00 83 1015.5
20260507052403 8 49 3.2 4.8 0.00 0.00 0.00 83 1015.5
20260507051904 8 52 3.2 8.0 0.00 0.00 0.00 83 1015.4
20260507051406 8 62 1.6 8.0 0.00 0.00 0.00 84 1015.4
20260507050903 7 59 4.8 4.8 0.00 0.00 0.00 84 1015.4
20260507050404 7 63 3.2 9.7 0.00 0.00 0.00 84 1015.4
20260507045903 7 56 1.6 4.8 0.00 0.00 0.00 85 1015.3
20260507045404 7 68 1.6 4.8 0.00 0.00 0.00 84 1015.3
20260507044904 7 62 1.6 4.8 0.00 0.00 0.00 84 1015.3
20260507044405 7 62 1.6 3.2 0.00 0.00 0.00 84 1015.3
20260507043904 7 62 0.0 3.2 0.00 0.00 0.00 84 1015.3
20260507043404 7 28 1.6 4.8 0.00 0.00 0.00 84 1015.2
20260507042904 7 47 1.6 4.8 0.00 0.00 0.00 84 1015.2
20260507042404 7 54 3.2 4.8 0.00 0.00 0.00 84 1015.2
20260507041904 7 65 1.6 4.8 0.00 0.00 0.00 84 1015.2
20260507041404 7 57 1.6 4.8 0.00 0.00 0.00 84 1015.2
20260507040905 7 58 3.2 4.8 0.00 0.00 0.00 85 1015.2
20260507040403 7 56 1.6 4.8 0.00 0.00 0.00 85 1015.2
20260507035404 7 38 3.2 8.0 0.00 0.00 0.00 84 1015.2
20260507034904 7 36 1.6 3.2 0.00 0.00 0.00 84 1015.2
20260507034404 7 36 1.6 4.8 0.00 0.00 0.00 84 1015.1
20260507033903 7 36 1.6 4.8 0.00 0.00 0.00 83 1015.2
20260507032404 7 49 1.6 4.8 0.00 0.00 0.00 83 1015.0
20260507031903 7 47 3.2 4.8 0.00 0.00 0.00 83 1015.1
20260507031403 7 43 1.6 4.8 0.00 0.00 0.00 83 1015.0
20260507030904 7 51 1.6 8.0 0.00 0.00 0.00 84 1015.0
20260507030404 7 34 3.2 8.0 0.00 0.00 0.00 84 1015.1
20260507025903 7 33 3.2 8.0 0.00 0.00 0.00 84 1015.1
20260507025404 7 32 1.6 4.8 0.00 0.00 0.00 83 1015.0
20260507024404 7 34 1.6 4.8 0.00 0.00 0.00 84 1015.0
20260507023903 7 42 3.2 4.8 0.00 0.00 0.00 84 1014.9
20260507023405 7 30 3.2 4.8 0.00 0.00 0.00 85 1014.9
20260507022904 7 20 3.2 4.8 0.00 0.00 0.00 85 1014.9
20260507022404 6 46 3.2 4.8 0.00 0.00 0.00 86 1014.8
20260507021903 6 38 3.2 4.8 0.00 0.00 0.00 85 1014.9
20260507021404 6 44 3.2 4.8 0.00 0.00 0.00 85 1014.9
20260507020404 6 22 3.2 4.8 0.00 0.00 0.00 83 1014.8
20260507015904 6 46 3.2 4.8 0.00 0.00 0.00 83 1014.8
20260507015404 6 46 1.6 4.8 0.00 0.00 0.00 83 1014.8
20260507014904 6 46 1.6 4.8 0.00 0.00 0.00 83 1014.8
20260507014405 6 46 0.0 1.6 0.00 0.00 0.00 83 1014.8
20260507013404 7 46 0.0 1.6 0.00 0.00 0.00 82 1014.7
20260507012903 7 46 0.0 3.2 0.00 0.00 0.00 81 1014.7
20260507012404 7 46 0.0 0.0 0.00 0.00 0.00 81 1014.8
20260507011903 7 46 0.0 1.6 0.00 0.00 0.00 81 1014.8
20260507010903 7 46 0.0 3.2 0.00 0.00 0.00 79 1014.8
20260507010405 7 46 0.0 1.6 0.00 0.00 0.00 79 1014.8
20260507004904 7 46 0.0 1.6 0.00 0.00 0.00 78 1014.9
20260507003903 7 46 0.0 3.2 0.00 0.00 0.00 76 1014.9
20260507002904 8 46 0.0 0.0 0.00 0.00 0.00 75 1014.9
20260507002405 8 46 0.0 1.6 0.00 0.00 0.00 74 1014.9
20260507001904 8 46 0.0 1.6 0.00 0.00 0.00 73 1014.9
20260507001405 8 46 0.0 1.6 0.00 0.00 0.00 73 1015.0
20260507000905 8 44 1.6 3.2 0.00 0.00 0.00 73 1015.0
20260507000406 8 43 0.0 3.2 0.00 0.00 0.00 72 1015.0
20260506235903 8 43 0.0 3.2 0.00 0.00 0.00 72 1014.9
20260506235404 9 43 0.0 1.6 0.00 0.00 0.00 72 1014.9
20260506234404 9 43 0.0 0.0 0.00 0.00 0.00 70 1014.9
20260506233904 10 43 0.0 3.2 0.00 0.00 0.00 70 1014.9
20260506233403 10 43 1.6 4.8 0.00 0.00 0.00 70 1014.9
20260506232904 10 43 3.2 4.8 0.00 0.00 0.00 70 1014.9
20260506232404 10 20 3.2 4.8 0.00 0.00 0.00 70 1014.9
20260506231904 10 20 1.6 4.8 0.00 0.00 0.00 69 1014.8
20260506231404 10 20 3.2 4.8 0.00 0.00 0.00 68 1014.8
20260506230403 11 18 1.6 4.8 0.00 0.00 0.00 67 1014.8
20260506225904 11 28 3.2 4.8 0.00 0.00 0.00 67 1014.7
20260506225405 11 31 3.2 8.0 0.00 0.00 0.00 66 1014.7
20260506224903 11 49 1.6 4.8 0.00 0.00 0.00 66 1014.7
20260506224403 11 40 3.2 9.7 0.00 0.00 0.00 65 1014.7
20260506223905 11 37 4.8 9.7 0.00 0.00 0.00 65 1014.6
20260506223403 11 30 3.2 4.8 0.00 0.00 0.00 64 1014.6
20260506222904 11 44 1.6 9.7 0.00 0.00 0.00 64 1014.6
20260506222404 11 42 4.8 9.7 0.00 0.00 0.00 65 1014.6
20260506221904 11 35 1.6 4.8 0.00 0.00 0.00 64 1014.6
20260506221404 11 35 1.6 4.8 0.00 0.00 0.00 64 1014.6
20260506220904 11 35 4.8 9.7 0.00 0.00 0.00 63 1014.6
20260506220403 11 56 3.2 8.0 0.00 0.00 0.00 62 1014.5
20260506215905 12 31 3.2 9.7 0.00 0.00 0.00 62 1014.5
20260506215404 11 54 4.8 12.9 0.00 0.00 0.00 62 1014.4
20260506214903 11 49 4.8 9.7 0.00 0.00 0.00 63 1014.4
20260506213904 12 38 1.6 4.8 0.00 0.00 0.00 64 1014.5
20260506213403 12 38 1.6 4.8 0.00 0.00 0.00 64 1014.5
20260506212904 12 22 3.2 4.8 0.00 0.00 0.00 64 1014.5
20260506212403 12 29 1.6 8.0 0.00 0.00 0.00 64 1014.5
20260506211403 12 36 3.2 9.7 0.00 0.00 0.00 64 1014.4
20260506210904 12 33 3.2 9.7 0.00 0.00 0.00 64 1014.3
20260506210404 12 33 4.8 9.7 0.00 0.00 0.00 64 1014.4
20260506205903 12 34 4.8 11.3 0.00 0.00 0.00 64 1014.4
20260506204404 12 21 3.2 4.8 0.00 0.00 0.00 62 1014.2
20260506203903 12 48 3.2 4.8 0.00 0.00 0.00 62 1014.2
20260506203403 12 34 3.2 4.8 0.00 0.00 0.00 61 1014.2
20260506202404 12 29 3.2 9.7 0.00 0.00 0.00 60 1014.0
20260506201905 12 59 3.2 8.0 0.00 0.00 0.00 60 1014.0
20260506201403 12 60 1.6 4.8 0.00 0.00 0.00 60 1014.0
20260506200905 12 47 4.8 9.7 0.00 0.00 0.00 59 1014.0
20260506200404 12 61 4.8 11.3 0.00 0.00 0.00 59 1013.9
20260506195905 12 51 1.6 4.8 0.00 0.00 0.00 57 1013.8
20260506195404 13 41 4.8 11.3 0.00 0.00 0.00 56 1013.8
20260506194904 13 49 4.8 9.7 0.00 0.00 0.00 56 1013.8
20260506194404 13 3 4.8 14.5 0.00 0.00 0.00 55 1013.8
20260506193903 13 21 3.2 8.0 0.00 0.00 0.00 55 1013.7
20260506193404 13 14 3.2 8.0 0.00 0.00 0.00 54 1013.6
20260506192903 13 30 3.2 12.9 0.00 0.00 0.00 54 1013.5
20260506192403 13 42 8.0 12.9 0.00 0.00 0.00 54 1013.5
20260506190905 13 5 8.0 12.9 0.00 0.00 0.00 55 1013.4
20260506190404 13 35 4.8 12.9 0.00 0.00 0.00 54 1013.4
20260506185904 13 30 4.8 12.9 0.00 0.00 0.00 55 1013.3
20260506185405 13 14 8.0 14.5 0.00 0.00 0.00 54 1013.3
20260506184903 13 24 6.4 11.3 0.00 0.00 0.00 53 1013.3
20260506183903 13 20 4.8 9.7 0.00 0.00 0.00 52 1013.2
20260506182904 13 35 4.8 12.9 0.00 0.00 0.00 54 1013.2
20260506182404 13 31 8.0 16.1 0.00 0.00 0.00 54 1013.1
20260506181905 13 10 8.0 14.5 0.00 0.00 0.00 55 1013.1
20260506180903 14 22 8.0 14.5 0.00 0.00 0.00 52 1013.0
20260506180403 14 38 4.8 12.9 0.00 0.00 0.00 52 1012.9
20260506175903 14 27 4.8 11.3 0.00 0.00 0.00 52 1012.9
20260506175405 14 29 4.8 14.5 0.00 0.00 0.00 51 1012.8
20260506174905 14 42 4.8 14.5 0.00 0.00 0.00 52 1012.8
20260506174404 14 30 6.4 16.1 0.00 0.00 0.00 51 1012.7
20260506172904 14 352 4.8 11.3 0.00 0.00 0.00 48 1012.6
20260506171904 14 358 4.8 9.7 0.00 0.00 0.00 49 1012.6
20260506171404 14 12 8.0 12.9 0.00 0.00 0.00 49 1012.6
20260506170904 14 54 6.4 9.7 0.00 0.00 0.00 49 1012.6
20260506165905 15 337 4.8 9.7 0.00 0.00 0.00 48 1012.6
20260506164903 15 10 6.4 12.9 0.00 0.00 0.00 47 1012.6
20260506163904 15 27 4.8 12.9 0.00 0.00 0.00 48 1012.6
20260506163404 15 324 3.2 9.7 0.00 0.00 0.00 48 1012.5
20260506162903 15 22 4.8 12.9 0.00 0.00 0.00 48 1012.5
20260506162404 15 4 8.0 12.9 0.00 0.00 0.00 49 1012.6
20260506161904 15 6 6.4 12.9 0.00 0.00 0.00 49 1012.6
20260506161404 15 42 1.6 11.3 0.00 0.00 0.00 50 1012.6
20260506160904 15 16 4.8 11.3 0.00 0.00 0.00 50 1012.6
20260506160403 15 13 4.8 11.3 0.00 0.00 0.00 49 1012.6
20260506155904 15 22 3.2 9.7 0.00 0.00 0.00 49 1012.6
20260506155404 15 19 3.2 9.7 0.00 0.00 0.00 49 1012.6
20260506154904 15 32 4.8 9.7 0.00 0.00 0.00 48 1012.6
20260506154404 15 49 4.8 11.3 0.00 0.00 0.00 48 1012.6
20260506153903 15 20 8.0 16.1 0.00 0.00 0.00 48 1012.7
20260506153404 15 9 8.0 12.9 0.00 0.00 0.00 48 1012.7
20260506152903 15 12 4.8 11.3 0.00 0.00 0.00 47 1012.7
20260506152403 15 312 6.4 14.5 0.00 0.00 0.00 47 1012.7
20260506151904 15 3 6.4 12.9 0.00 0.00 0.00 49 1012.7
20260506151404 15 35 4.8 14.5 0.00 0.00 0.00 49 1012.7
20260506150904 15 345 6.4 16.1 0.00 0.00 0.00 48 1012.7
20260506150404 15 18 8.0 11.3 0.00 0.00 0.00 49 1012.7
20260506145905 15 26 4.8 11.3 0.00 0.00 0.00 49 1012.7
20260506145405 15 18 4.8 9.7 0.00 0.00 0.00 49 1012.8
20260506144905 15 23 3.2 12.9 0.00 0.00 0.00 49 1012.8
20260506143905 15 327 6.4 11.3 0.00 0.00 0.00 47 1012.8
20260506143403 15 16 8.0 14.5 0.00 0.00 0.00 46 1012.8
20260506142905 15 35 8.0 14.5 0.00 0.00 0.00 47 1012.8
20260506142403 15 343 4.8 16.1 0.00 0.00 0.00 46 1012.8
20260506141906 15 325 6.4 16.1 0.00 0.00 0.00 45 1012.8
20260506141403 15 8 4.8 12.9 0.00 0.00 0.00 46 1012.8
20260506140903 15 20 9.7 16.1 0.00 0.00 0.00 47 1012.8
20260506140403 15 355 4.8 19.3 0.00 0.00 0.00 46 1012.8
20260506135905 16 13 8.0 16.1 0.00 0.00 0.00 45 1012.8
20260506135404 16 347 6.4 19.3 0.00 0.00 0.00 45 1012.8
20260506134403 16 19 9.7 22.5 0.00 0.00 0.00 44 1012.9
20260506133904 16 341 8.0 14.5 0.00 0.00 0.00 44 1012.9
20260506133405 16 15 11.3 19.3 0.00 0.00 0.00 42 1012.9
20260506132903 16 9 8.0 19.3 0.00 0.00 0.00 43 1013.0
20260506132403 16 354 11.3 22.5 0.00 0.00 0.00 43 1013.0
20260506131904 17 18 9.7 19.3 0.00 0.00 0.00 41 1012.9
20260506131403 17 34 4.8 22.5 0.00 0.00 0.00 41 1012.9
20260506130904 16 31 6.4 19.3 0.00 0.00 0.00 44 1012.9
20260506130404 16 357 4.8 12.9 0.00 0.00 0.00 44 1012.9
20260506125905 16 32 6.4 11.3 0.00 0.00 0.00 44 1013.0
20260506125404 16 341 4.8 11.3 0.00 0.00 0.00 42 1013.0
20260506124403 17 356 8.0 19.3 0.00 0.00 0.00 42 1013.0
20260506123904 16 352 8.0 19.3 0.00 0.00 0.00 42 1012.9
20260506122904 17 2 11.3 24.1 0.00 0.00 0.00 43 1013.0